Theta_e
297 297 296 296 296 295 295 295 294 294 294 293 292 292 292 292 291 291 290 290 290 289 289 289 288 288 288 288 288 287 287 287 288 287 287 286 285 285 285 285 285 285 285 284 284 284 284 285 286 286 287 287 286 285 285 284 284 284 284 285 285 285 284 284 284 284 284 284 284
297 297 297 297 296 295 295 295 294 294 293 293 293 292 292 291 291 290 290 290 290 289 289 288 288 287 287 287 288 287 287 287 287 287 286 285 285 285 285 285 285 285 285 284 284 284 285 284 286 286 287 286 286 285 285 284 284 284 284 284 284 284 284 284 284 284 284 284 284
297 297 297 296 295 295 294 294 293 293 293 293 292 292 291 291 290 290 289 289 289 289 288 288 287 287 287 287 287 287 287 286 286 286 286 285 285 284 284 284 284 284 284 284 284 284 284 284 286 287 287 286 285 285 285 285 284 284 284 284 284 284 284 284 285 285 284 284 284
297 297 296 296 295 294 294 293 293 292 292 292 291 291 291 291 290 289 289 288 288 288 288 287 287 287 287 287 287 287 287 287 286 286 285 285 285 284 284 284 284 284 283 283 283 283 283 283 285 286 286 285 285 285 285 285 284 284 284 284 284 284 284 284 285 285 285 285 284
296 296 296 295 295 294 294 293 292 292 291 291 291 290 290 290 289 289 288 288 288 287 287 287 287 287 287 287 287 287 287 287 287 286 285 285 284 284 284 284 284 284 283 283 283 283 282 283 285 285 285 285 285 285 285 284 283 283 283 284 284 284 284 284 284 285 285 284 284
296 295 295 295 294 294 293 293 292 292 291 291 290 290 289 289 289 288 288 287 287 287 287 287 287 287 287 286 286 286 286 286 286 286 285 285 284 284 284 284 283 283 283 283 282 282 282 283 285 285 285 285 285 284 284 283 283 283 283 283 283 284 284 284 284 284 284 284 284
295 294 294 293 293 293 292 292 292 291 291 290 290 289 289 288 288 288 287 287 287 287 288 288 287 287 287 286 286 286 285 285 285 285 285 285 284 284 284 284 283 283 283 282 282 282 282 283 284 285 285 285 285 284 283 282 282 282 283 283 284 284 284 284 284 284 284 283 283
294 293 293 292 292 292 292 291 291 291 290 290 289 288 288 288 288 287 287 287 287 287 287 287 287 286 286 286 286 286 285 285 285 285 284 285 284 284 283 283 283 283 283 282 282 282 282 283 284 284 284 284 284 284 283 282 281 282 282 283 283 284 284 284 284 284 283 283 283
293 292 292 292 292 291 291 291 291 290 290 289 288 288 288 287 287 287 287 287 287 287 287 286 286 286 286 286 286 285 285 285 285 284 284 284 284 284 284 284 283 283 283 282 282 282 282 283 283 283 283 283 283 283 282 281 281 281 282 283 283 284 284 284 284 283 283 283 283
291 291 291 291 291 291 291 290 290 289 289 288 288 288 288 288 288 287 287 287 287 286 286 286 286 286 285 285 285 285 285 285 284 284 284 285 284 284 283 283 283 283 283 282 282 282 282 282 283 283 282 282 282 282 281 281 281 281 282 283 284 283 284 284 284 283 283 283 283
291 291 290 290 290 290 290 289 289 289 288 288 288 288 288 288 287 287 287 287 286 286 285 285 286 285 285 285 285 284 284 284 284 284 284 284 283 283 283 283 282 282 282 282 282 282 282 282 282 282 282 282 282 282 281 281 281 281 282 283 283 283 283 284 284 284 284 284 283
290 290 290 290 290 290 290 289 288 288 288 287 287 287 287 286 286 286 286 286 286 285 285 285 285 285 285 285 284 284 284 284 284 284 283 283 283 282 282 282 282 282 282 282 282 282 282 282 282 282 282 282 282 282 282 281 281 282 282 283 283 283 283 284 284 284 284 284 283
290 290 290 290 290 289 289 288 288 288 287 287 286 286 286 286 286 286 286 286 285 285 284 285 285 285 285 284 284 284 283 283 283 284 283 283 282 282 282 282 282 281 281 282 281 281 281 281 281 281 281 282 282 283 282 282 282 282 282 283 283 283 283 283 284 284 284 284 283
289 289 289 289 289 289 288 288 287 287 287 286 286 286 286 286 286 286 286 285 285 284 284 285 285 285 284 284 283 283 283 283 283 283 283 283 282 282 282 282 281 281 281 282 281 281 281 281 281 281 281 282 282 282 282 282 282 282 282 283 283 283 283 284 284 284 284 283 283
289 289 289 289 289 288 288 287 287 286 286 286 285 285 285 286 286 286 286 285 285 284 284 285 284 284 284 283 283 283 283 283 283 283 283 282 282 282 282 282 281 281 281 281 281 281 281 281 281 281 281 281 282 282 282 282 282 282 283 283 283 283 283 284 284 284 284 283 283
288 288 288 288 288 288 287 287 286 286 286 285 285 285 285 285 286 286 285 284 284 284 284 284 284 283 283 283 283 283 283 283 283 283 283 282 282 282 281 281 281 281 281 281 281 281 281 281 281 281 281 281 282 282 282 283 282 283 283 283 283 283 283 284 284 284 284 283 283
288 288 288 288 287 287 287 287 286 286 285 285 285 285 285 285 285 286 285 285 284 284 284 284 283 284 284 284 283 283 283 283 283 283 282 282 282 281 281 281 281 281 281 281 281 281 281 281 281 281 281 281 282 282 282 283 283 283 283 283 283 283 283 284 284 284 283 283 283
287 287 287 287 287 287 286 286 286 285 285 285 285 285 285 285 285 285 285 285 285 284 283 283 283 283 283 283 283 284 283 283 283 282 282 282 281 281 281 281 281 281 280 280 281 281 281 281 281 281 281 281 282 282 283 283 283 283 283 283 283 283 283 283 283 283 283 283 283
287 287 287 287 286 286 286 286 285 285 285 285 285 285 285 285 285 285 284 285 285 284 283 283 283 283 283 283 283 284 284 283 282 282 281 281 281 281 281 281 281 280 280 280 280 281 281 281 281 282 282 282 282 283 283 283 283 283 283 283 283 283 283 283 283 283 283 283 283
286 286 286 286 286 286 286 285 285 285 284 284 284 284 284 284 284 284 284 284 284 284 283 283 283 283 283 283 283 283 283 283 282 281 281 281 281 280 280 281 280 280 280 280 280 280 281 281 281 282 282 283 283 283 284 284 284 284 283 283 283 283 283 283 283 283 283 283 283
286 286 286 286 286 285 285 285 284 284 284 284 284 284 284 284 284 284 283 283 283 283 283 283 283 283 283 282 282 282 282 283 281 281 281 281 280 281 281 281 280 280 280 280 280 280 281 281 282 282 283 283 284 284 284 284 284 284 283 284 283 283 283 283 283 283 283 283 283
286 286 285 285 285 285 284 284 284 284 284 284 284 284 284 283 283 283 283 283 283 283 283 283 283 283 283 283 282 282 282 282 281 281 281 281 281 281 280 280 280 280 280 280 280 281 281 282 283 283 284 284 284 284 284 285 284 284 283 283 283 283 283 283 283 283 283 283 283
285 285 285 285 285 285 285 284 284 284 284 284 283 283 283 283 282 282 282 283 283 283 283 283 283 282 282 282 282 282 281 281 281 280 280 280 280 280 280 280 279 279 280 280 281 281 282 283 284 285 285 285 285 285 285 284 284 284 283 283 283 283 283 283 283 283 283 283 283
284 284 285 285 284 284 284 284 284 284 284 283 283 283 283 282 282 282 282 283 283 283 282 283 282 282 282 282 281 281 281 281 281 280 280 279 279 279 279 279 279 280 280 281 282 284 286 287 287 287 287 286 286 286 285 284 284 284 283 283 283 283 283 283 282 283 283 283 283
284 284 284 284 284 284 284 284 284 283 283 283 283 283 282 282 282 282 282 282 282 282 282 282 282 282 282 281 281 280 281 281 280 280 280 280 279 279 279 279 280 280 281 282 285 288 289 290 290 290 289 288 287 286 285 284 284 283 283 283 283 283 282 282 282 282 282 282 283
284 284 284 284 284 284 284 284 283 283 283 283 283 282 282 282 283 283 283 282 282 282 282 283 283 283 282 281 281 280 280 280 280 279 279 279 279 279 279 280 280 280 281 283 287 289 290 291 291 291 290 289 288 286 286 285 284 283 283 282 282 282 282 282 282 282 283 283 283
284 284 284 284 284 284 283 283 283 283 283 283 282 282 282 282 283 283 282 282 282 282 282 283 283 283 282 281 281 280 280 279 279 279 278 278 278 279 279 280 280 281 282 285 287 289 290 291 291 291 290 289 288 287 286 285 284 283 282 282 282 282 282 282 282 282 282 283 283
284 284 284 284 284 283 283 283 283 283 283 282 282 282 282 282 283 283 282 282 282 282 282 282 282 282 281 281 281 280 279 279 278 278 278 278 278 279 279 280 280 281 283 286 288 289 290 290 291 291 290 290 289 287 286 285 284 283 283 283 282 282 282 282 282 282 282 282 282
284 284 284 283 283 283 283 283 283 282 282 282 282 282 282 283 283 283 283 283 283 283 282 282 281 281 281 281 280 279 278 278 278 278 278 277 278 279 279 280 280 281 283 287 288 289 290 290 290 290 290 290 289 288 286 285 284 284 283 283 283 283 283 282 283 282 282 282 282
284 284 283 283 283 283 283 283 282 282 282 282 282 283 283 283 283 283 283 283 283 282 282 281 281 281 280 280 279 279 279 278 278 277 277 278 279 279 280 280 280 280 283 287 288 289 290 290 290 290 290 290 289 287 286 285 284 284 283 283 283 283 282 282 282 282 282 282 282
284 283 283 283 283 283 282 282 282 282 282 283 283 283 283 283 282 282 282 282 282 282 281 280 280 280 279 278 278 278 278 278 277 278 278 278 279 280 280 279 279 280 283 287 288 289 289 289 289 289 289 289 289 287 286 285 284 283 283 283 283 283 282 282 282 282 282 282 282
284 283 283 283 282 282 282 282 282 282 283 283 283 283 282 282 282 282 282 282 281 281 280 280 280 279 278 278 278 278 278 278 278 278 279 279 278 278 278 279 279 280 283 287 288 289 289 289 289 289 289 289 289 287 286 285 284 283 283 283 282 282 282 282 283 283 283 283 282
284 283 283 283 282 282 282 282 282 282 283 283 282 282 282 282 282 281 281 281 280 280 280 280 280 279 279 278 278 278 278 278 279 279 279 279 278 278 278 279 279 281 284 287 288 288 288 289 288 289 289 289 288 287 285 284 284 283 283 283 282 282 282 282 282 282 283 283 282
283 283 283 282 282 282 282 282 282 282 282 282 282 282 282 282 282 281 281 281 280 279 279 279 278 278 278 278 278 278 278 280 279 278 278 277 277 277 278 279 279 281 285 287 287 288 288 288 288 288 288 289 288 286 285 284 284 283 283 283 283 283 282 282 282 282 283 282 282
283 283 282 282 282 282 282 282 282 282 282 282 282 282 282 282 281 281 281 281 280 278 277 277 276 276 276 276 276 277 278 279 278 278 277 277 277 277 278 279 279 281 284 286 287 287 288 288 288 288 288 288 287 286 285 284 283 283 283 283 282 282 282 282 283 283 283 283 282
283 283 282 282 282 282 282 282 282 282 282 282 282 282 281 281 280 280 280 281 279 278 277 276 276 276 276 276 276 277 278 278 278 277 277 278 278 277 278 278 279 281 284 286 286 287 287 287 288 288 288 287 286 285 285 284 284 284 283 283 283 283 283 283 283 283 283 283 283
283 283 282 282 282 282 282 282 283 283 282 282 282 281 280 279 279 278 278 279 278 277 277 276 276 277 277 277 277 278 278 277 277 277 278 278 278 277 278 279 279 280 283 285 286 286 287 287 287 288 287 287 286 285 284 284 284 284 283 283 283 283 283 283 283 283 283 283 284
283 283 282 282 282 282 282 283 283 282 282 281 280 280 279 278 278 278 278 279 278 277 277 277 277 277 277 277 277 277 277 277 277 277 277 277 277 278 278 279 279 280 281 284 285 286 287 287 287 287 287 286 285 285 284 284 284 283 283 283 283 283 283 283 283 283 284 284 285
283 283 282 282 282 282 283 283 282 282 281 280 279 278 277 277 277 277 278 278 277 277 277 277 277 277 277 277 278 277 277 276 277 277 277 277 277 279 280 280 279 279 281 283 285 286 286 287 287 287 287 286 285 285 284 284 283 283 283 282 282 283 283 283 284 284 284 284 285
283 283 283 283 283 282 282 282 281 281 280 280 279 278 277 277 278 278 277 276 276 276 276 276 276 276 277 279 278 277 276 276 276 277 277 278 278 280 281 280 279 279 280 282 284 285 286 287 287 287 287 286 285 285 284 284 283 282 282 282 282 282 283 283 284 284 284 283 283
283 283 283 283 283 282 282 281 280 280 279 279 279 278 278 278 277 276 275 275 275 275 275 276 276 276 276 278 277 276 276 277 277 277 277 278 278 279 280 278 278 278 278 280 283 285 286 286 287 287 287 286 285 285 284 283 283 282 282 282 282 282 283 284 284 283 283 282 282
Wind_Speed
11 10 9 9 8 7 7 6 6 6 7 7 8 7 7 7 7 7 6 6 6 6 6 6 6 6 6 7 8 9 9 9 9 9 9 8 7 6 6 5 5 5 4 4 3 2 2 2 2 2 2 2 1 1 1 1 0 0 0 1 1 1 1 2 3 3 3 3 3
11 11 11 10 9 8 7 7 7 6 6 6 6 7 7 7 8 7 7 7 7 6 6 6 6 7 7 8 8 9 9 9 9 9 8 7 6 6 6 5 5 5 4 4 3 2 2 1 1 2 2 1 1 1 1 1 0 0 1 1 1 1 1 2 3 3 3 3 3
11 11 11 10 10 9 8 7 7 7 7 6 6 7 7 7 7 7 7 7 7 7 7 6 6 7 8 8 7 8 8 9 9 8 8 7 6 6 5 5 5 5 4 3 3 2 2 1 1 1 1 1 1 1 0 1 0 1 1 2 1 1 1 2 2 3 3 3 3
12 11 11 11 12 12 10 9 9 9 9 7 7 7 7 7 7 7 7 8 8 8 7 7 7 7 7 8 8 8 8 9 9 8 8 7 6 6 5 5 5 5 4 3 3 2 2 1 1 1 1 1 0 0 0 0 0 1 1 2 1 2 2 2 2 2 2 3 3
11 10 10 11 12 12 11 10 11 11 9 8 8 8 7 7 7 7 8 8 7 7 7 8 7 7 7 8 9 9 9 9 9 8 7 7 6 6 5 5 5 4 3 3 3 2 2 1 1 1 0 0 0 0 0 0 0 1 1 1 1 2 2 2 2 2 2 3 3
11 10 10 10 12 11 10 10 12 11 10 9 10 10 9 7 7 8 8 8 8 8 8 9 8 8 8 9 9 9 8 8 7 7 7 7 6 6 6 5 5 4 3 3 2 2 2 1 1 1 0 0 1 0 0 0 1 1 2 2 1 1 2 2 2 2 3 3 4
11 11 11 11 12 11 11 11 11 11 10 10 12 12 11 10 10 10 10 9 8 8 8 8 8 8 9 9 9 8 8 7 7 7 7 6 6 6 5 5 4 3 3 2 2 2 1 1 1 1 1 1 1 0 0 0 1 2 2 2 2 2 2 2 2 2 3 4 5
11 12 12 12 12 13 13 12 11 11 10 10 11 13 13 13 12 12 11 10 8 8 7 7 8 9 9 9 9 8 8 8 7 6 6 6 6 6 5 4 4 3 3 2 2 1 1 1 1 1 1 1 1 1 0 0 1 2 2 3 2 2 2 2 2 3 3 4 5
11 11 12 12 12 12 13 12 12 12 11 11 12 13 13 13 13 12 11 9 8 8 7 7 8 9 10 9 9 8 8 7 7 6 6 6 6 5 5 4 4 3 2 2 2 1 1 1 1 1 1 1 1 1 1 1 1 2 3 3 3 3 3 3 3 3 4 4 5
12 12 12 12 12 12 12 12 12 13 14 14 14 14 13 13 12 11 10 8 8 8 8 8 9 9 9 9 8 8 7 7 6 6 6 6 6 5 4 3 3 3 2 1 1 1 1 0 1 1 1 1 2 2 2 1 2 2 3 3 3 4 4 4 4 4 4 4 5
13 13 12 12 12 13 13 12 12 12 13 13 13 13 13 12 11 10 9 9 9 9 8 8 9 9 9 8 8 7 6 6 6 6 6 6 5 4 3 3 2 2 2 1 1 0 0 0 1 1 2 2 2 2 2 2 2 3 3 3 4 4 5 6 5 4 4 5 5
14 13 13 13 13 13 13 12 11 11 12 13 13 12 11 10 10 10 10 10 10 9 8 8 8 9 9 7 7 7 6 6 6 6 6 5 4 4 3 2 2 1 1 1 0 0 0 0 1 2 2 2 2 2 2 2 3 3 4 4 4 5 5 6 6 5 5 5 6
14 14 13 13 13 13 13 12 11 11 12 12 11 11 10 10 10 10 11 11 10 9 7 7 8 8 8 7 7 6 6 6 6 6 6 5 4 3 2 2 1 1 0 0 0 0 0 1 1 2 3 3 3 3 2 3 3 4 4 5 5 5 6 6 6 6 6 6 6
14 14 14 14 13 13 12 12 10 10 11 12 11 10 10 9 9 10 10 10 10 8 7 7 7 7 7 7 7 7 6 6 6 6 6 5 4 3 2 1 1 0 0 0 0 1 1 1 2 2 3 4 4 4 3 3 3 4 4 5 6 6 6 6 7 6 6 7 7
14 14 14 14 13 12 12 11 10 10 10 11 10 10 9 8 9 9 9 10 9 8 7 7 6 6 6 7 7 7 7 6 6 6 6 5 3 3 2 1 1 0 0 1 1 1 2 2 3 3 3 4 5 5 5 4 4 4 5 5 5 6 6 6 7 7 7 7 8
14 14 14 13 13 12 11 11 9 9 10 10 10 9 9 8 8 8 9 9 8 8 7 7 7 6 6 6 6 6 6 6 6 6 5 4 3 2 2 1 0 0 1 1 1 2 2 3 3 3 4 5 5 5 5 5 5 5 5 5 5 6 6 6 6 7 7 7 8
14 14 13 13 13 13 12 11 10 9 10 10 10 9 9 8 8 8 9 9 8 8 8 8 7 6 6 6 6 6 6 6 5 5 4 4 3 2 1 1 0 0 1 1 2 2 3 3 3 4 4 5 5 5 5 5 5 5 5 5 5 5 5 6 6 6 7 7 8
14 13 13 13 13 13 13 12 11 11 11 11 10 9 9 8 8 8 8 9 9 9 9 8 7 6 6 6 5 5 5 5 5 4 3 3 2 2 1 0 0 1 1 2 2 3 4 4 4 4 4 5 5 5 5 5 5 5 5 5 5 5 5 5 5 6 6 7 8
14 13 13 13 13 13 13 13 13 12 11 11 10 9 9 9 9 9 8 8 9 10 9 8 7 6 6 6 5 5 5 5 4 4 3 2 2 1 1 0 1 1 1 2 3 4 4 5 5 5 5 5 5 5 5 5 5 5 5 4 4 4 4 5 5 5 6 6 8
14 13 13 13 13 14 14 13 13 12 11 10 10 10 10 10 10 10 9 8 8 9 9 9 8 7 6 6 5 5 4 3 3 3 2 2 1 1 0 1 1 2 2 2 3 4 5 5 5 5 5 5 5 5 5 4 4 4 4 4 4 4 4 4 5 5 6 6 7
13 13 13 13 13 13 13 13 12 12 12 11 11 11 10 10 10 10 9 9 8 8 8 8 8 7 7 6 6 5 4 3 2 2 2 1 1 0 1 1 1 2 2 3 4 4 5 5 6 6 5 5 5 5 4 4 4 4 3 3 3 3 4 4 4 5 6 7 7
13 12 13 13 13 13 13 12 12 12 12 11 11 11 10 10 10 9 9 8 8 8 8 8 7 7 6 6 5 4 3 2 2 2 1 1 0 0 1 1 2 2 3 3 4 5 5 6 6 6 5 4 4 4 4 4 3 3 3 3 3 3 4 4 4 5 6 7 7
13 12 12 12 13 13 13 13 12 12 12 11 11 11 10 10 9 9 8 8 8 8 7 7 6 6 5 5 5 4 3 3 2 1 1 0 0 1 1 1 2 2 3 4 4 5 5 6 5 5 4 3 4 4 4 4 3 3 3 3 3 3 4 4 5 5 6 7 7
13 12 12 11 13 13 13 12 12 12 12 11 11 11 10 10 9 8 8 8 8 7 7 6 5 5 5 4 4 3 3 3 3 2 1 1 1 1 1 1 2 2 3 4 5 5 5 5 4 3 3 3 3 3 3 3 3 3 3 3 3 4 4 5 5 6 6 7 7
13 13 13 12 13 13 13 12 12 12 11 11 11 11 10 10 9 9 8 8 7 7 7 6 5 5 4 4 3 3 3 3 3 2 1 1 1 1 1 1 2 2 3 4 6 8 8 8 6 5 3 2 2 2 2 3 3 3 3 3 4 4 5 6 6 6 7 7 7
13 13 13 13 13 13 13 12 12 12 11 11 11 10 10 9 9 9 9 8 7 7 6 6 5 5 4 4 3 3 2 2 2 2 1 1 2 2 2 2 2 3 3 5 8 9 10 10 10 8 6 3 2 2 2 2 3 3 3 3 4 4 6 7 7 7 7 8 8
13 13 13 13 13 13 12 12 12 11 11 11 11 10 9 8 8 8 8 8 7 6 5 5 5 4 4 3 3 3 3 2 1 1 1 1 1 2 2 2 3 3 4 6 9 10 10 10 11 10 9 6 4 3 2 2 2 3 3 3 4 5 6 7 8 9 9 8 9
13 13 13 13 13 12 12 12 12 11 11 11 10 9 9 9 9 9 8 7 7 6 5 4 3 3 2 2 3 3 2 2 1 0 0 1 1 2 3 3 3 4 6 8 9 10 10 11 11 11 11 9 5 3 2 2 2 2 3 3 4 5 6 7 7 8 9 9 9
14 13 13 13 13 12 12 12 11 11 11 10 10 9 9 9 9 8 8 7 7 6 5 3 2 2 2 3 2 2 2 1 1 0 0 1 2 2 3 4 4 5 7 10 10 10 11 11 11 11 12 12 7 4 2 2 2 3 3 4 5 5 6 7 7 8 9 10 10
13 13 13 13 13 12 11 11 11 10 10 9 9 9 9 9 8 8 7 7 6 5 4 2 2 2 3 2 2 1 1 1 0 0 1 1 2 3 4 4 4 6 7 10 10 11 11 11 11 12 12 13 10 5 2 1 2 3 4 5 5 6 7 7 8 9 9 10 10
13 13 13 13 13 12 11 11 10 10 9 9 9 9 9 8 8 7 7 6 5 4 3 3 3 3 3 2 1 1 1 1 1 1 1 2 3 4 4 5 5 6 7 10 10 11 11 12 12 12 13 14 10 6 2 2 3 4 5 5 6 7 7 8 8 9 10 11 11
13 13 13 13 12 12 11 10 10 10 9 9 9 9 9 8 7 6 5 5 4 3 3 3 4 3 2 1 1 1 1 1 1 1 1 2 3 4 4 5 5 6 7 10 11 11 12 12 12 13 13 14 11 7 4 3 4 4 5 6 7 8 8 8 8 10 11 12 12
13 13 13 13 12 11 10 10 10 10 10 9 9 9 8 7 6 5 4 3 3 3 3 3 3 3 2 1 1 0 0 1 1 2 2 2 3 4 4 4 4 6 8 10 11 11 12 12 13 13 14 14 11 7 4 4 4 5 5 6 7 8 8 9 9 10 11 12 12
13 13 13 13 12 11 10 10 10 10 10 9 9 8 8 7 6 5 3 2 2 2 2 2 2 2 1 1 1 0 1 1 1 2 2 2 3 3 4 4 4 6 8 11 11 12 12 13 13 14 14 14 10 6 5 5 5 5 6 7 7 7 8 9 10 11 12 12 11
13 13 13 12 12 11 10 10 10 10 10 10 9 8 7 6 5 4 3 2 2 2 2 1 1 1 1 0 0 1 1 2 2 2 2 2 3 3 4 4 5 7 9 11 11 12 13 13 14 14 14 13 8 6 5 6 6 6 7 7 7 8 8 9 10 11 11 11 11
13 13 13 12 11 10 10 10 10 10 10 10 9 8 6 5 4 3 2 2 2 2 2 1 1 1 1 0 0 1 1 2 2 3 2 2 3 3 4 5 6 7 9 11 12 12 13 14 14 15 14 11 7 5 5 6 6 7 7 7 7 8 9 10 10 11 10 10 9
12 13 13 12 11 10 10 10 10 10 10 9 8 7 6 5 3 2 1 2 2 2 2 1 1 1 1 0 1 1 2 2 2 3 3 3 3 3 4 5 6 7 9 11 12 13 13 14 15 15 14 10 7 6 6 6 7 8 8 8 8 9 9 10 10 10 9 8 7
12 12 12 12 11 10 10 10 10 10 9 8 6 5 4 3 2 1 1 1 2 2 2 1 1 1 0 1 1 2 2 2 2 3 3 3 3 3 4 5 6 7 8 10 12 13 14 14 15 15 14 10 8 7 6 6 7 8 8 8 8 9 10 9 8 7 6 5 7
11 11 12 11 11 10 10 10 10 9 8 7 5 4 3 3 2 1 1 1 1 2 2 2 1 0 1 1 1 2 2 2 3 3 3 3 3 4 4 5 6 6 8 10 12 13 14 14 15 15 14 11 9 7 7 7 8 9 9 8 9 10 10 8 6 5 4 5 8
11 11 11 11 11 10 10 10 9 8 7 6 5 4 3 2 2 2 1 1 1 1 2 1 1 1 1 2 1 2 2 2 2 2 3 3 4 5 5 5 5 6 8 10 12 13 14 14 15 16 15 11 9 7 7 7 8 9 9 9 9 9 8 6 4 4 5 6 9
10 10 11 11 10 10 10 10 8 7 6 5 5 4 3 2 2 2 1 1 1 1 1 1 1 1 1 2 1 1 2 3 2 2 3 4 4 5 5 4 5 6 7 9 11 13 14 15 15 16 15 12 9 8 7 7 8 9 10 10 9 8 7 5 4 5 6 8 8
Wind_Direction
141 141 141 140 137 134 131 128 130 131 134 137 138 138 134 127 123 121 119 117 118 118 119 119 121 126 131 132 124 118 113 109 106 104 102 102 103 102 100 95 91 89 87 84 81 78 75 70 77 77 76 70 74 75 79 88 110 142 193 250 272 267 265 268 275 275 270 263 262
136 137 137 134 131 128 125 125 126 127 129 132 132 131 128 123 121 119 118 116 117 118 119 119 124 129 132 130 122 117 113 110 107 104 102 100 100 100 98 93 89 86 84 82 78 75 73 67 74 76 74 65 67 75 88 104 133 213 256 274 281 275 268 269 274 276 276 273 267
135 136 136 134 132 131 130 130 129 129 127 126 125 122 119 116 116 115 115 114 116 118 120 124 129 131 130 126 119 115 113 111 109 107 104 102 100 97 94 93 88 84 79 76 72 68 64 54 62 68 68 59 50 55 73 110 187 267 288 294 291 282 277 278 281 280 277 277 270
136 137 137 136 136 136 135 134 133 131 129 125 119 114 110 109 109 111 113 115 117 120 124 129 132 132 129 123 118 114 112 111 109 107 105 103 99 94 92 89 86 81 75 71 68 64 57 46 50 55 57 52 30 17 20 78 251 278 294 297 290 284 282 287 290 288 284 286 278
138 138 137 136 135 134 133 132 133 132 130 126 119 113 109 107 109 113 116 119 121 124 128 132 132 130 126 120 116 112 109 107 106 106 105 102 98 93 88 83 81 79 74 69 65 60 53 39 49 53 51 5 326 342 356 350 283 286 290 291 286 282 285 291 294 291 290 291 288
136 133 130 129 129 128 128 130 131 131 129 125 121 118 117 116 119 121 123 123 125 128 130 132 129 126 122 118 113 110 106 103 103 104 104 102 98 92 86 80 78 75 72 67 63 59 51 38 49 48 29 322 305 324 15 226 286 297 302 299 291 286 285 289 293 293 292 290 290
131 129 127 126 126 127 127 129 129 127 124 121 121 121 122 123 123 124 125 125 128 132 134 133 130 127 123 118 113 111 108 106 104 103 102 101 96 90 84 81 76 72 67 63 61 57 50 34 41 26 9 348 339 350 159 238 291 305 312 312 307 299 291 288 290 291 291 289 289
125 124 125 125 126 127 128 130 128 125 122 120 121 123 124 124 125 125 126 127 132 134 135 131 129 126 122 118 115 113 112 110 107 103 101 99 94 89 84 80 75 70 65 59 57 52 45 31 31 10 351 336 334 335 313 251 285 302 309 313 310 305 299 294 291 289 287 288 288
120 120 121 122 124 126 127 128 126 124 122 120 121 123 124 125 126 127 128 129 132 133 130 127 126 122 118 115 114 114 113 112 109 105 100 97 93 88 83 79 74 69 63 57 56 50 34 13 13 348 328 320 321 318 304 259 278 293 303 306 307 306 302 295 290 286 284 285 289
124 122 121 121 122 123 123 122 120 119 118 119 121 123 125 126 127 127 128 129 129 128 126 126 123 118 114 113 113 113 113 112 110 106 100 94 91 87 82 77 72 66 59 52 53 50 34 356 348 322 308 305 300 295 282 259 278 291 299 304 308 307 305 300 295 290 288 290 292
127 126 125 124 125 123 121 117 115 116 117 119 122 123 124 125 125 125 126 126 124 124 124 125 121 117 114 113 114 114 114 112 108 104 99 92 89 86 82 78 73 65 55 43 45 45 24 341 322 306 298 295 289 284 277 268 281 291 297 300 303 304 303 304 304 301 298 299 297
126 125 125 125 125 124 121 118 117 117 118 120 122 122 122 122 124 125 125 123 121 121 121 121 118 117 115 115 115 115 112 109 106 103 99 94 91 88 86 82 77 66 53 33 32 6 335 294 301 301 300 299 294 290 286 282 288 294 298 299 300 301 303 305 307 308 307 306 302
125 124 124 124 124 123 120 118 118 119 120 122 122 121 121 122 125 125 123 121 119 118 117 116 114 115 116 117 117 115 112 108 104 101 98 96 94 92 91 88 81 68 45 16 305 254 258 257 271 286 297 301 301 298 293 287 290 295 298 301 302 302 304 305 308 309 309 308 305
125 125 125 125 124 122 120 119 119 120 121 122 122 122 122 123 125 124 122 119 118 117 117 114 111 111 114 117 117 114 111 108 104 101 98 96 96 94 93 89 84 65 24 335 235 234 245 257 261 272 285 294 298 298 294 288 287 290 293 297 300 302 304 306 309 310 311 310 308
125 125 126 126 125 123 121 120 120 121 122 123 123 123 123 123 124 122 119 117 117 117 116 113 110 108 109 112 112 112 109 106 103 101 99 97 96 95 94 88 71 28 342 320 272 249 250 257 261 267 275 284 291 293 294 289 285 284 285 288 293 297 301 306 309 311 311 311 310
126 127 127 126 125 124 122 122 122 122 123 124 124 124 123 122 121 120 118 117 118 116 114 113 113 111 109 107 108 107 106 102 101 100 100 100 98 97 95 86 57 356 319 306 289 273 263 260 261 264 269 276 283 288 290 289 286 283 282 283 287 292 298 303 308 310 311 311 310
127 128 128 127 126 125 124 124 123 124 125 125 125 124 124 124 122 121 120 120 119 117 115 115 115 114 111 107 105 104 103 101 99 99 100 102 104 104 102 93 11 294 284 288 289 285 279 272 267 264 265 269 276 280 283 284 284 283 283 283 286 290 295 301 306 309 310 310 309
128 129 128 127 126 125 124 124 124 125 126 126 126 125 124 123 122 121 120 121 120 118 117 115 114 113 111 108 105 103 102 101 100 101 104 110 115 119 123 165 260 264 263 269 278 282 284 283 277 272 269 268 271 273 276 278 279 280 282 284 287 289 293 297 302 306 308 309 309
130 129 128 126 125 124 124 124 125 125 126 126 125 124 122 122 121 119 118 118 119 119 118 116 113 110 108 107 103 100 99 101 104 107 112 121 130 141 167 245 266 267 265 266 272 277 280 283 282 279 275 273 272 273 273 273 275 276 279 281 284 286 290 294 298 302 305 307 308
130 129 127 126 125 124 124 124 125 125 125 125 123 122 121 121 119 118 117 117 117 117 117 116 113 110 107 106 102 98 96 100 106 111 119 130 138 158 211 264 277 276 273 271 274 276 279 281 280 278 276 273 274 273 273 272 272 273 274 277 278 281 285 291 297 301 304 306 306
128 127 126 125 124 123 123 124 124 124 124 123 122 121 120 118 115 115 115 117 116 115 114 113 113 112 111 108 104 102 100 99 104 110 119 126 137 178 242 268 278 280 280 278 278 277 277 278 277 275 273 270 270 270 271 273 273 272 270 271 273 275 281 287 294 299 303 305 306
125 123 123 122 122 122 123 123 123 123 122 121 120 118 116 113 111 112 113 115 112 110 109 109 110 111 110 109 109 108 107 102 102 105 111 115 127 254 272 276 279 284 285 284 282 279 277 274 271 268 266 264 263 263 265 268 270 269 268 267 270 275 280 287 292 297 300 303 304
122 121 120 120 121 121 122 123 122 121 120 119 117 115 113 110 110 110 110 109 107 106 105 105 105 105 106 107 109 112 112 106 98 91 84 81 326 299 292 283 279 283 286 287 283 277 274 270 266 259 252 249 253 257 259 261 263 264 265 267 272 278 284 288 291 294 297 299 301
122 121 121 120 122 123 123 123 122 120 119 118 116 114 113 112 112 110 108 105 104 104 104 103 103 103 104 103 105 107 107 103 92 78 58 28 339 309 296 284 280 283 285 284 282 283 284 285 279 267 251 241 249 254 257 255 254 254 257 266 276 283 287 289 290 292 294 297 299
121 121 121 122 124 125 124 123 121 119 118 117 116 115 114 114 114 112 109 105 104 104 105 106 107 107 107 105 104 102 100 97 90 77 52 11 340 315 301 291 291 290 287 282 291 301 309 317 317 313 299 271 263 260 258 249 245 244 249 260 276 286 292 294 293 292 293 295 297
122 122 123 124 125 124 123 121 120 119 118 117 115 115 114 115 114 112 109 106 105 106 107 108 111 112 111 111 110 104 97 93 92 84 59 8 338 324 312 303 304 297 292 291 303 312 319 324 324 324 321 310 293 282 272 258 244 240 245 255 271 284 293 299 300 299 298 297 297
123 123 124 125 123 122 121 120 119 118 117 116 115 115 115 116 113 110 107 106 106 105 104 103 103 105 106 106 99 93 88 85 92 95 80 352 327 321 317 313 310 303 298 302 312 318 322 324 325 325 324 321 311 297 287 274 253 245 249 259 271 281 289 296 300 302 302 301 299
125 125 124 122 121 120 120 119 118 117 117 117 117 117 116 114 111 109 108 108 107 104 99 95 96 97 95 88 80 77 75 71 75 87 210 287 307 310 311 311 310 306 308 313 318 322 325 326 327 327 326 324 319 309 291 277 266 261 264 273 281 286 289 292 297 300 302 303 302
125 125 123 121 120 120 119 118 118 118 117 117 117 116 114 111 109 108 108 107 104 102 100 100 100 94 83 75 71 67 61 52 45 4 301 302 305 305 306 309 308 309 312 317 321 324 326 327 327 327 327 326 324 321 307 285 283 284 285 289 292 293 293 293 296 298 300 301 302
125 124 123 121 120 119 118 118 118 118 118 117 116 114 112 108 107 106 104 102 100 100 103 108 100 87 79 75 70 60 47 29 3 331 320 321 318 314 311 312 309 310 313 319 323 326 327 328 329 329 328 326 325 324 317 302 296 295 298 299 297 295 293 292 293 294 295 298 299
124 123 121 120 119 118 117 117 117 118 117 116 114 111 108 105 104 103 102 102 103 105 106 99 91 87 82 77 67 52 31 353 333 320 314 313 316 313 311 310 306 307 311 318 324 327 329 330 330 330 328 326 326 325 323 314 301 299 299 299 296 293 291 290 291 292 293 295 297
124 122 120 118 117 117 117 117 117 117 115 112 110 107 104 103 102 102 103 106 111 112 108 96 92 90 88 76 66 45 7 338 325 310 303 302 303 303 304 307 305 306 311 320 326 329 331 332 331 330 328 326 326 327 326 315 304 298 295 292 290 287 286 287 289 291 293 293 295
123 121 119 118 118 118 118 118 117 115 112 109 107 106 105 105 105 105 105 108 111 109 104 98 98 98 99 97 85 47 344 317 307 303 300 298 293 295 300 308 306 310 316 325 329 332 333 333 332 330 328 326 327 327 323 311 302 297 293 289 285 282 281 280 283 286 289 291 293
122 121 119 118 119 119 119 118 116 113 110 107 106 106 108 108 108 107 107 106 101 95 92 91 98 106 115 128 129 139 302 306 302 295 292 289 288 295 302 309 308 315 322 328 332 333 334 333 331 329 327 326 326 324 317 305 298 293 288 285 282 279 278 278 280 282 286 289 292
123 121 120 119 120 120 120 118 116 113 110 108 107 106 105 104 104 105 106 104 99 92 84 78 86 99 111 142 198 247 274 297 296 291 286 285 291 300 306 307 306 316 324 330 334 335 334 332 331 329 327 326 325 319 310 302 297 291 285 281 280 279 279 279 281 284 287 290 293
124 122 121 121 121 121 120 119 116 113 111 110 109 107 105 101 99 98 98 97 94 92 91 88 86 79 66 34 297 271 271 282 290 292 293 294 300 305 306 306 306 315 324 331 334 335 334 332 330 328 327 325 322 315 308 303 300 297 294 289 287 286 285 285 287 289 291 293 295
124 123 123 122 122 122 121 119 116 113 112 111 111 110 110 107 102 95 91 96 94 95 96 94 82 71 58 10 286 272 268 269 281 290 298 303 303 301 301 304 306 315 323 330 333 334 333 331 329 328 326 324 320 315 310 307 305 306 305 303 300 295 292 291 291 292 295 298 299
124 123 123 123 123 122 121 118 115 114 113 113 113 113 113 110 107 104 104 106 110 111 111 99 81 62 338 261 263 265 265 262 269 281 292 300 296 294 297 304 308 314 321 328 332 333 332 330 328 327 326 323 321 317 312 309 309 310 310 309 305 300 296 294 296 299 302 304 304
124 123 123 123 122 121 119 116 115 115 116 117 116 114 110 104 105 107 108 99 117 122 121 112 103 258 271 265 267 271 269 260 261 270 283 291 291 297 305 311 311 315 320 327 330 330 330 328 327 327 326 323 321 318 314 311 311 311 310 309 305 302 299 298 303 308 311 305 305
122 122 122 122 121 119 117 115 115 116 117 118 116 113 109 104 105 104 99 86 98 109 115 120 153 254 276 288 289 295 295 284 266 269 280 292 297 310 320 321 314 314 317 323 326 327 327 327 327 327 327 323 321 319 316 313 312 312 311 309 306 304 305 309 316 318 314 307 305
119 120 119 119 118 117 116 115 115 114 113 111 111 111 109 105 101 97 92 86 84 89 101 126 204 255 276 298 308 322 325 324 310 298 295 303 308 318 325 323 313 311 313 317 321 324 326 327 327 327 327 324 323 320 318 315 313 312 311 308 305 305 309 319 321 318 313 311 307